Simultaneous Nadir Overpasses (SNOs) Predictions

Prediction of SNOs between GOES-17 and FY3D Satellite Orbit:

Table of predicted SNOs for the next 14.0 days since TLE Epoch: 10/26/2024
Index Date Time (GOES-17) GOES-17 Lat,Lon FY3D Lat,Lon Distance(km) Time Diff (sec)
1 10/26/2024 21:54:27 0.01,-104.68 -0.79,-108.14 394.54 80
2 10/27/2024 21:38:28 0.01,-104.69 0.27,-103.62 122.50 80
3 10/29/2024 10:00:22 -0.01,-104.72 0.93,-108.88 473.44 80
4 10/30/2024 09:39:02 -0.00,-104.73 -0.07,-104.34 43.30 80
5 11/01/2024 21:42:23 -0.00,-104.71 -0.09,-105.10 45.11 80
6 11/02/2024 21:26:23 -0.02,-104.71 0.93,-100.57 472.18 80
7 11/04/2024 09:48:17 0.03,-104.74 0.26,-105.83 123.53 80
8 11/05/2024 09:26:57 0.03,-104.74 -0.77,-101.30 392.82 80
9 11/06/2024 21:48:58 -0.03,-104.70 -0.44,-106.58 213.60 80
10 11/07/2024 21:32:58 -0.03,-104.71 0.60,-102.05 303.15 80
